Regional Weather Roundup
Issued by NWS New Orleans/Baton Rouge, LA

Home | Current Version | Previous Version | Text Only | Print | Product List | Glossary On
Versions: 1 2 3 4 5 6 7 8 9 10 11 12 13 14 15 16 17 18 19 20 21 22 23 24 25 26 27 28 29 30 31 32 33 34 35 36 37 38 39 40 41 42 43 44 45 46 47 48 49 50
000
ASUS44 KLIX 241713
RWRLIX
NEW ORLEANS REGIONAL WEATHER ROUNDUP
NATIONAL WEATHER SERVICE NEW ORLEANS LA
1100 AM CST TUE JAN 24 2017

NOTE: "FAIR" INDICATES FEW OR NO CLOUDS BELOW 12,000 FEET WITH NO
      SIGNIFICANT WEATHER AND/OR OBSTRUCTIONS TO VISIBILITY.
      SKY/WX - SKY CONDITION AND SIGNIFICANT WEATHER.
      TMP - AIR TEMPERATURE.     DP    - DEWPOINT TEMPERATURE.
      RH  - RELATIVE HUMIDITY.   PRES  - PRESSURE.
      HI  - HEAT INDEX.          WCI   - WIND CHILL INDEX.

*  THESE STATIONS ARE NOT NWS OR FAA STATIONS AND ARE NOT UNDER
   NWS QUALITY CONTROL.

LAZ038-040-048-061>063-065>067-069-241800-
SOUTHEAST LOUISIANA

CITY           SKY/WX    TMP DP  RH WIND       PRES   REMARKS
N.O. AUDUBON   NOT AVBL
N.O. INTL ARPT SUNNY     62  50  64 SE8       29.97F
N.O. LAKEFRONT SUNNY     60  49  66 E10       29.98F
N.O. DOWNTOWN*   N/A     62  48  60 SE7       29.98F
RESERVE*         N/A     65  48  54 SE6       29.97F
SLIDELL        SUNNY     61  44  53 CALM      29.97S
BATON ROUGE    SUNNY     63  45  51 E9        29.96S
BOOTHVILLE     SUNNY     60  52  74 NE7       30.00S
BELLE CHASSE   SUNNY     61  50  67 E8        29.98S
BOGALUSA*        N/A     60  44  55 CALM      29.99S
GALLIANO*      SUNNY     64  50  59 E5        29.98S
NEW ROADS*       N/A     61  46  56 SE10      29.95S
GONZALES*        N/A     64  47  53 E7        29.96S
HAMMOND*       SUNNY     63  45  51 SE8       29.97F
HOUMA*         SUNNY     66  48  52 SE6       29.97S
PORT FOURCHON* SUNNY     64  52  63 E8        29.98S

$$

MSZ070-080>082-241800-
SOUTHERN MISSISSIPPI

CITY           SKY/WX    TMP DP  RH WIND       PRES   REMARKS
MCCOMB         SUNNY     60  42  51 VRB6      29.95S
GULFPORT       SUNNY     59  42  53 E7        29.97F
BILOXI         SUNNY     58  44  57 VRB5      29.97F
PASCAGOULA     SUNNY     60  39  45 NE6       29.98F

$$

COASTAL OBSERVATIONS
LAKE AND NEARSHORE STATIONS

STATION/POSITION TIME  TEMP    WIND        PRES    WAVE
                       AIR SEA DIR/SP/G            HT/PER
                 (UTC) (F)     (DEG/KT/KT) (MB)    (FT/S)
PASCAGOULA       1642   60      20/  3/  5 1014.7
WAVELAND YACHT   1642   57 61   90/  2/  4 1015.3
GRAND ISLE       1642   62 62  110/  7/ 11 1015.4
SOUTHWEST PASS   1642           70/  7/  9   N/A
NEW CANAL        1642   61 60  100/  3/  9 1014.4
SHELL BEACH      1642   59 62   90/  6/  8 1015.4

OFFSHORE STATIONS

STATION/POSITION TIME  TEMP    WIND        PRES    WAVE
                       AIR SEA DIR/SP/G            HT/PER
                 (UTC) (F)     (DEG/KT/KT) (MB)    (FT/S)

$$




USA.gov is the U.S. government's official web portal to all federal, state and local government web resources and services.